SCP
0 0 0 0 0 0 0 0 0 0 0 0 0 0 0 0 0 0 0 0 0 0 0 0 0 0 0 0 0 0 0 0 0 0 -0 -0 -0 -0 -0 -0 -0 -0 -0 0 0 0 0 0 -0 0 0 0 0 -0
0 0 0 0 0 0 0 0 0 0 0 0 0 0 0 0 0 0 0 0 0 0 0 0 -0 -0 -0 0 0 0 0 0 0 0 -0 -0 -0 -0 -0 -0 -0 -0 -0 0 0 0 0 -0 -0 0 0 0 -0 -0
0 0 0 0 0 0 0 0 0 0 0 0 0 0 0 0 0 0 0 0 0 0 0 0 0 0 0 0 0 0 0 0 0 0 -0 -0 -0 -0 -0 -0 -0 -0 -0 0 0 0 -0 0 -0 0 0 0 0 -0
0 0 0 0 0 0 0 0 0 0 0 0 0 0 0 0 0 0 0 0 0 0 0 0 0 0 0 0 0 0 0 0 0 0 -0 -0 -0 0 -0 -0 -0 -0 -0 -0 0 0 -0 -0 -0 -0 -0 -0 0 0
0 0 0 0 0 0 0 0 0 0 0 0 0 0 0 0 0 0 0 0 0 0 0 0 0 0 0 0 0 0 0 0 0 0 0 0 0 -0 -0 -0 -0 -0 -0 0 0 0 -0 -0 -0 -0 -0 0 0 0
0 0 0 0 0 0 0 0 0 0 0 0 0 0 0 0 0 0 0 0 0 0 0 0 0 0 0 0 0 0 0 0 0 0 0 -0 0 0 -0 -0 -0 -0 0 0 -0 -0 -0 -0 -0 -0 0 0 0 0
0 0 0 0 0 0 0 0 0 0 0 0 0 0 0 0 0 0 0 0 0 0 0 0 0 0 0 0 0 0 0 0 0 0 0 0 0 0 -0 -0 0 -0 -0 0 -0 -0 0 0 0 0 0 0 0 0
0 0 0 0 0 0 0 0 0 0 0 0 0 0 0 0 0 0 0 0 0 0 0 0 0 0 0 0 0 0 0 0 0 0 0 0 0 0 -0 0 0 -0 -0 0 0 0 0 -0 -0 -0 -0 -0 0 -0
0 0 0 0 0 0 0 0 0 0 0 0 0 0 0 0 0 0 0 0 0 0 0 0 0 0 0 0 0 0 0 0 0 0 0 0 0 0 -0 -0 -0 -0 -0 0 0 0 0 0 0 0 0 -0 0 -0
0 0 0 0 0 0 0 0 0 0 0 0 0 0 0 0 0 0 0 0 0 0 0 0 0 0 0 0 0 0 0 0 0 0 0 0 0 -0 0 0 -0 0 0 0 -0 0 0 -0 0 0 0 -0 0 0
0 0 0 0 0 0 0 0 0 0 0 0 0 0 0 0 0 0 0 0 0 0 0 0 0 0 0 0 0 0 0 0 0 0 0 0 0 -0 0 0 0 0 0 0 -0 -0 -0 0 0 -0 0 0 0 0
0 0 0 0 0 0 0 0 0 0 0 0 0 0 0 0 0 0 0 0 0 0 0 0 0 0 0 0 0 0 0 0 0 0 0 0 0 0 0 0 0 0 0 -0 -0 -0 -0 -0 0 -0 0 0 0 0
0 0 0 0 0 0 0 0 0 0 0 0 0 0 0 0 0 0 0 0 0 0 0 0 0 0 0 0 0 0 0 0 0 0 0 0 0 0 0 0 0 0 0 0 0 -0 -0 -0 -0 -0 -0 0 0 0
0 0 -0 0 0 0 0 0 0 0 0 0 0 0 0 0 0 0 0 0 0 0 0 0 0 0 0 0 0 0 0 0 0 0 0 0 0 0 0 0 0 0 0 0 0 0 -0 -0 -0 -0 -0 -0 -0 -0
0 0 -0 -0 0 0 0 0 0 0 0 0 0 0 0 0 0 0 0 0 0 0 0 0 0 0 0 0 0 0 0 0 0 0 0 0 0 -0 0 0 0 0 0 0 0 0 0 0 0 0 0 0 -0 -0
0 0 0 -0 0 0 0 0 0 0 0 0 0 0 0 0 0 0 0 0 0 0 0 0 0 0 0 0 0 0 0 0 0 0 0 0 -0 -0 0 0 0 0 0 0 0 0 0 0 0 0 0 0 0 0
0 0 -0 -0 0 0 0 0 0 0 0 0 0 0 0 0 0 0 0 0 0 0 0 0 0 0 0 0 0 0 0 0 0 0 0 0 -0 0 0 0 0 0 0 0 0 0 0 0 0 0 0 0 0 0
0 0 -0 0 0 0 0 0 0 0 0 0 0 0 0 0 0 0 0 0 0 0 0 0 0 0 0 0 0 0 0 0 0 0 -0 -0 0 0 0 0 0 0 0 0 0 0 0 0 -0 0 0 0 0 0
0 0 -0 0 0 0 0 0 0 0 0 0 0 0 0 0 0 0 0 0 0 0 0 0 0 0 0 0 0 0 0 0 0 0 0 0 0 0 0 0 0 0 0 0 0 0 0 0 0 0 0 0 0 0
0 0 0 0 0 0 0 0 0 0 0 0 0 0 0 0 0 0 0 0 0 0 0 0 0 0 0 0 0 0 0 0 0 -0 0 0 0 -0 -0 -0 0 0 0 0 0 0 0 0 0 0 0 0 0 0
0 0 0 0 0 0 0 0 0 0 0 0 0 0 0 0 0 0 0 0 0 0 0 0 0 0 0 0 0 0 0 0 -0 0 0 -0 -0 0 0 0 0 0 -0 0 0 0 0 0 0 0 0 0 0 0
0 0 0 0 0 0 0 0 0 0 0 0 0 0 0 0 0 0 0 0 0 0 0 0 0 0 0 0 0 0 0 0 -0 0 0 0 0 0 0 0 -0 0 -0 0 0 0 0 0 0 0 0 0 0 0
0 0 0 0 0 0 0 0 0 0 0 0 0 0 0 0 0 0 0 0 0 0 0 0 0 0 0 0 0 0 0 0 0 0 0 0 0 -0 -0 0 0 0 0 0 0 0 0 0 0 0 -0 -0 -0 -0
0 0 0 0 0 0 0 0 0 0 0 0 0 0 0 0 0 0 0 0 0 0 0 0 0 0 0 0 0 0 0 0 0 0 -0 0 0 -0 -0 -0 0 -0 -0 0 0 0 0 0 0 0 0 0 0 0
0 0 0 0 0 0 0 0 0 0 0 0 0 0 0 0 0 -0 -0 -0 -0 0 0 0 0 0 0 0 0 0 0 0 0 0 -0 -0 -0 -0 -0 0 0 0 -0 0 0 0 0 0 0 0 0 0 0 0
0 0 0 0 0 0 0 0 0 0 0 0 0 0 0 0 0 -0 0 0 0 0 0 0 0 0 0 0 0 0 0 0 0 0 0 0 0 0 0 0 0 0 0 0 0 0 0 0 0 0 0 0 0 0
0 0 0 0 0 0 0 0 0 0 0 0 -0 -0 0 0 0 0 0 0 0 0 0 0 0 0 0 0 0 0 0 0 0 0 0 0 0 0 0 0 0 0 0 0 -0 -0 -0 -0 0 0 0 0 0 0
0 0 0 0 0 0 0 0 0 0 0 0 -0 0 0 0 0 0 0 0 0 0 0 0 0 0 0 0 0 0 0 0 0 0 0 0 0 0 0 0 0 0 0 0 -0 -0 -0 -0 -0 0 0 0 0 0
0 0 0 0 0 0 0 0 0 0 -0 -0 0 0 0 0 0 0 0 0 0 0 0 0 0 0 0 0 0 0 0 0 0 -0 0 0 0 0 0 0 0 0 0 0 0 0 -0 -0 -0 -0 -0 0 0 0
0 0 0 0 0 0 0 0 0 0 -0 0 0 0 0 0 0 0 0 0 0 0 0 0 0 0 0 0 0 0 0 0 0 0 0 0 0 0 0 0 0 0 0 0 0 -0 0 -0 -0 -0 -0 -0 -0 0
0 0 0 0 0 0 0 0 -0 0 0 0 0 0 0 0 0 0 0 0 0 -0 0 0 0 0 0 0 0 0 0 0 0 0 0 0 0 0 0 0 0 0 0 0 0 0 0 0 0 -0 -0 -0 0 0
0 0 0 0 0 0 0 0 0 0 0 0 0 -0 -0 0 0 0 -0 -0 0 0 0 -0 0 0 0 0 0 0 0 0 0 0 0 0 0 0 0 0 0 0 0 0 0 0 0 0 0 0 0 0 0 0
0 0 0 0 0 0 0 0 0 0 0 0 0 0 0 0 0 0 0 -0 -0 -0 0 0 -0 -0 0 0 0 0 0 0 0 0 0 0 0 0 0 0 0 0 0 0 0 0 0 0 0 0 0 0 0 0
Wind_Speed_500mb
84 81 84 80 74 67 65 62 57 55 54 50 45 35 29 24 19 6 9 16 12 21 40 29 21 23 17 15 10 23 14 9 10 11 6 7 8 8 6 11 20 8 12 10 10 8 10 60 29 17 20 33 31 31
83 84 81 82 84 78 77 68 62 60 58 55 50 37 32 27 20 13 12 19 15 24 26 30 39 37 38 30 24 9 15 6 6 5 8 7 7 9 16 8 19 7 3 6 5 7 23 36 39 42 34 28 32 34
78 81 83 82 76 88 86 80 69 67 64 61 53 40 35 30 22 17 15 20 22 30 50 31 21 23 29 32 27 12 9 5 5 2 5 5 10 8 7 10 10 9 17 5 11 5 25 24 44 37 32 30 34 39
71 76 76 80 76 78 88 77 80 74 72 65 55 44 37 31 25 21 18 11 17 11 11 2 12 12 16 23 30 35 18 2 3 8 6 6 6 7 7 13 4 8 17 21 5 10 31 20 40 34 29 31 36 38
67 70 77 71 82 75 79 83 89 88 79 69 58 44 37 34 26 21 21 21 25 17 11 26 36 30 30 37 26 25 26 23 16 3 5 6 9 6 9 10 8 4 6 11 6 15 9 12 29 29 27 30 30 29
61 64 65 76 69 76 77 69 78 79 80 70 56 45 39 34 24 11 17 23 30 28 8 7 10 15 19 19 23 29 24 17 13 8 8 11 11 8 7 4 5 4 11 20 1 8 16 10 22 19 22 24 25 28
62 58 59 63 72 66 69 67 63 73 71 65 52 43 36 33 29 23 6 16 27 26 7 12 9 15 25 23 22 21 23 14 14 9 12 10 11 16 7 8 13 11 12 18 16 6 8 25 14 16 15 15 18 22
56 52 50 50 54 55 53 46 53 68 65 63 49 38 29 25 26 35 35 28 26 12 8 7 8 11 25 25 20 20 16 15 16 11 10 10 12 12 9 18 10 13 13 9 12 14 12 7 13 16 16 16 21 27
50 48 42 37 40 37 36 46 49 51 57 56 44 33 27 16 13 19 25 19 24 15 9 10 8 6 17 23 12 22 20 9 19 11 11 8 7 11 17 22 21 17 9 14 11 6 6 9 10 10 11 13 22 25
46 43 37 38 34 35 45 52 56 59 69 52 51 19 11 16 24 22 24 23 26 18 16 14 31 12 15 6 15 10 13 5 7 14 10 7 10 37 18 21 24 19 13 14 10 9 1 5 8 11 12 15 16 17
41 39 35 37 28 40 50 57 60 73 74 54 18 12 27 21 26 15 11 16 23 12 17 22 37 20 18 9 3 5 4 3 6 6 6 5 8 16 31 28 23 21 16 9 11 12 11 10 8 9 12 15 16 18
39 35 33 36 40 43 56 55 65 91 68 36 27 28 34 15 15 10 10 14 16 12 30 24 20 33 10 10 12 11 5 4 10 18 4 5 11 6 26 31 26 24 20 18 15 14 13 13 12 12 12 13 16 17
39 34 37 38 44 44 54 52 82 62 56 40 12 14 16 15 12 15 21 13 12 16 28 28 18 24 14 15 10 8 7 10 6 7 6 3 14 13 7 20 28 23 21 20 17 15 15 14 13 13 13 14 13 15
38 31 36 35 43 49 48 70 67 74 57 14 15 9 10 13 16 16 17 17 14 24 39 38 21 11 12 14 7 8 11 8 7 9 5 6 3 10 14 26 28 27 23 20 17 14 12 11 12 12 12 12 11 14
36 28 32 32 29 46 59 57 82 71 15 13 16 13 21 32 21 25 27 15 22 20 29 30 15 18 13 10 10 9 8 12 9 4 7 11 2 16 13 28 30 28 24 21 17 14 13 10 7 8 10 11 12 12
32 30 36 35 40 51 55 60 76 30 12 7 11 16 22 26 21 17 16 21 26 32 31 19 7 10 16 9 15 15 7 7 3 5 6 6 9 21 35 29 30 27 24 21 18 15 11 8 5 5 7 9 11 11
27 29 26 35 44 43 62 72 33 11 18 12 13 31 33 12 12 24 26 29 28 29 17 9 10 13 8 8 10 4 8 4 3 7 12 20 19 28 48 41 34 29 25 22 18 15 11 9 6 4 5 4 7 8
27 23 19 38 46 68 66 27 12 14 13 15 14 16 19 21 13 10 14 23 26 29 21 6 10 14 9 11 13 3 7 4 11 14 22 17 22 30 47 39 35 31 26 22 18 14 10 4 4 4 4 3 7 7
27 24 29 53 76 41 10 15 8 11 14 13 27 28 21 23 21 19 15 19 22 21 16 9 11 13 13 17 12 5 13 8 18 19 5 14 49 41 34 34 32 27 23 20 18 12 8 6 6 6 3 1 4 9
24 27 47 58 51 10 9 8 9 6 8 22 30 31 36 31 25 25 26 24 28 32 20 12 15 15 11 3 5 12 13 13 16 11 28 26 27 30 32 32 27 22 19 16 15 12 10 8 10 10 8 7 5 8
47 67 66 55 29 9 7 11 11 9 12 12 16 24 22 22 31 31 32 35 34 37 21 36 36 35 26 10 7 4 11 3 12 22 31 31 30 35 30 23 22 18 20 19 17 17 16 10 6 8 7 2 2 5
54 59 53 30 9 4 3 8 7 9 7 13 16 25 22 27 30 33 32 35 40 37 40 42 37 37 37 34 28 18 10 10 11 15 26 30 40 30 27 24 20 18 17 16 14 13 10 8 3 5 5 1 7 5
50 33 13 7 4 5 4 10 9 10 7 8 13 11 12 14 20 21 16 30 40 38 37 40 40 35 36 27 23 21 16 13 6 18 29 32 32 30 29 23 23 21 19 11 5 5 9 11 7 8 6 8 8 4
27 7 5 7 7 5 7 8 9 8 11 14 9 12 12 12 11 12 15 32 33 31 38 37 32 35 33 31 31 31 30 21 23 27 38 34 34 31 28 23 20 14 8 9 8 9 8 12 12 12 10 9 8 6
6 4 7 3 5 7 9 9 10 9 9 12 10 10 6 12 8 9 12 9 21 30 29 33 36 39 41 39 36 31 28 25 22 23 37 38 40 33 29 23 18 13 12 14 14 15 15 15 15 13 12 11 10 9
3 8 7 14 12 9 8 6 13 12 5 7 13 2 5 3 5 5 4 4 3 9 18 29 35 36 35 36 32 33 37 31 25 33 33 42 36 33 29 27 23 16 15 15 18 20 21 19 17 17 16 17 20 14
3 5 7 5 4 6 8 11 7 5 5 6 2 3 2 3 7 6 14 15 8 3 4 10 12 23 30 28 25 28 31 33 31 37 32 28 29 28 27 25 24 21 22 20 21 22 24 24 23 21 19 17 16 12
6 5 1 13 8 6 6 6 3 4 5 10 3 8 2 4 4 11 8 11 3 4 8 10 7 10 13 18 18 23 38 30 32 37 30 30 29 27 24 22 26 24 26 25 25 24 24 23 23 22 21 18 16 15
5 2 3 5 5 4 4 4 5 8 14 9 5 3 4 5 23 11 9 16 22 17 12 7 3 6 17 14 20 25 30 31 34 43 44 35 33 29 27 23 27 27 27 29 30 25 25 22 22 22 22 18 16 16
2 5 2 2 3 3 5 8 12 12 8 7 10 20 16 27 31 39 44 42 35 21 13 3 3 12 29 31 33 38 33 26 28 25 30 36 35 31 29 25 28 27 27 28 28 29 30 28 27 24 22 19 18 18
1 5 3 6 5 3 1 4 12 24 29 31 27 27 20 12 27 41 35 24 33 45 30 28 32 29 38 38 36 38 36 31 28 25 28 28 27 30 27 25 26 26 25 27 28 27 29 29 25 25 25 24 23 22
7 7 4 4 3 2 8 6 9 13 13 15 15 13 18 14 13 24 40 36 31 35 40 45 51 54 50 49 45 37 32 30 26 24 27 32 31 33 28 18 17 21 26 29 28 29 29 31 29 28 27 28 27 26
6 10 8 8 5 2 5 4 10 10 4 0 7 19 21 13 9 9 18 32 28 28 31 31 31 35 39 43 39 34 32 27 19 14 12 10 9 12 17 23 31 33 23 26 30 32 33 36 37 35 34 32 30 30
Wind_Direction_500mb
264 264 258 258 260 261 265 268 266 268 264 266 272 277 278 283 290 291 260 260 258 272 281 267 264 259 254 242 267 348 328 21 7 354 349 344 302 329 290 349 356 8 324 343 321 315 346 2 340 357 306 327 359 12
267 264 263 260 252 254 255 259 261 263 257 257 261 264 265 265 266 259 257 265 256 261 265 281 271 251 241 251 282 280 304 40 40 315 3 319 302 313 321 309 24 17 46 289 296 312 340 338 327 347 351 11 22 31
268 265 263 259 261 251 251 250 252 253 253 249 251 254 256 254 256 249 230 244 276 281 295 255 261 253 230 231 224 256 85 64 115 159 307 269 270 291 306 353 332 331 352 254 310 39 338 352 353 355 14 30 36 40
273 264 262 258 261 258 255 249 248 249 250 239 240 240 246 245 246 243 235 255 250 287 282 257 249 241 232 219 214 223 237 257 283 177 253 265 262 343 303 317 280 258 320 316 288 325 322 7 358 3 23 41 43 47
279 273 259 262 258 262 257 250 250 247 245 232 230 230 235 234 234 237 239 241 244 235 293 302 291 260 242 224 211 220 232 248 261 206 233 241 254 281 234 267 249 19 298 354 309 14 309 315 355 16 35 36 41 38
283 272 271 256 261 258 255 257 248 245 236 222 216 217 223 223 215 203 260 233 224 213 272 285 337 237 214 202 210 216 228 227 211 194 238 248 245 238 276 280 180 91 62 15 47 66 29 348 16 28 44 44 43 40
282 281 268 265 255 261 253 248 251 237 223 209 204 208 210 212 192 196 299 147 184 187 239 276 251 189 210 197 206 212 197 195 206 229 234 244 223 198 276 270 155 129 110 62 52 168 26 40 32 33 45 45 48 46
287 283 272 267 255 253 249 240 242 222 209 197 192 189 194 209 210 224 234 225 194 201 227 266 264 238 189 202 182 187 188 194 214 229 237 230 171 214 254 221 180 154 145 139 86 80 74 45 36 36 31 29 37 40
293 287 273 266 246 238 231 225 216 207 194 184 181 173 167 181 206 227 209 213 193 225 257 225 244 161 180 230 148 179 180 188 186 216 232 217 191 223 254 190 181 176 210 146 153 115 51 26 19 19 10 20 19 20
285 289 274 255 248 237 220 211 198 183 187 179 164 132 157 187 189 183 169 163 196 215 230 246 235 246 197 188 194 210 187 241 209 211 191 225 250 248 270 201 169 176 156 157 175 191 198 15 20 29 26 22 18 14
277 282 275 247 232 220 209 194 180 182 177 167 152 135 134 153 163 204 190 193 191 212 217 230 226 226 210 203 283 296 245 215 251 165 240 224 251 222 203 182 165 160 157 139 115 103 86 79 73 54 36 33 29 23
270 271 273 249 226 211 196 197 174 182 179 154 138 138 129 183 204 215 197 217 192 225 172 204 187 202 162 192 223 202 231 263 254 139 220 256 356 124 180 163 160 157 149 136 124 109 92 81 71 65 53 39 34 33
272 263 260 243 222 208 207 198 179 176 162 148 139 146 179 176 209 217 203 197 195 193 156 164 157 169 166 198 213 205 215 235 269 229 225 61 314 7 154 162 156 160 152 141 126 112 100 89 76 66 52 40 42 39
269 259 247 234 222 204 199 181 177 174 148 152 159 177 203 204 222 205 213 198 183 168 159 166 154 162 172 195 208 217 208 218 263 212 197 150 229 247 188 185 172 167 161 150 142 129 113 101 86 69 54 48 37 37
258 250 230 226 218 194 192 180 182 173 142 163 192 208 216 229 218 202 207 171 150 163 160 164 160 191 187 207 202 213 223 232 221 185 133 128 180 177 194 191 178 172 168 161 152 144 130 114 97 74 61 53 44 38
243 241 234 221 207 193 185 175 170 160 160 189 241 249 249 210 202 192 179 198 174 173 169 170 197 201 206 217 189 203 229 256 98 108 119 323 234 192 185 185 182 174 171 166 160 156 144 127 117 117 74 40 30 29
232 229 231 201 195 176 173 163 155 152 188 188 229 246 278 211 218 201 193 198 180 193 201 156 212 210 210 223 231 180 250 49 55 41 320 285 245 201 187 176 177 172 169 168 166 163 154 139 122 85 14 5 31 24
221 214 210 181 168 162 163 155 145 178 189 200 233 264 233 256 220 173 190 198 188 208 217 198 296 219 220 235 235 114 91 46 48 335 307 267 220 199 176 174 169 169 170 173 175 172 173 180 280 251 263 248 336 347
209 208 185 175 166 145 117 162 163 186 206 196 223 248 258 231 229 248 208 206 206 216 170 213 229 239 243 260 295 119 104 53 354 342 -0 157 153 166 168 167 168 169 173 180 183 194 213 230 309 320 308 205 314 301
215 169 178 167 145 109 112 122 190 285 219 205 221 238 233 235 231 218 216 211 204 211 221 214 235 238 259 36 20 53 90 43 13 111 145 153 146 156 171 171 174 177 187 187 202 214 221 253 287 286 275 252 283 242
133 149 153 150 123 83 138 153 174 221 239 237 237 221 231 224 233 226 215 213 215 221 223 228 242 252 264 272 191 156 160 99 41 166 184 191 190 181 171 175 179 189 195 202 212 219 226 245 222 237 197 242 216 171
148 141 125 106 70 85 203 177 161 161 239 240 223 216 235 221 217 214 220 220 218 223 230 236 239 240 246 247 249 252 207 164 21 180 194 188 181 178 177 181 177 196 199 213 224 200 200 180 234 204 167 180 158 154
122 110 85 81 101 160 221 178 200 202 236 209 206 228 221 234 228 197 205 231 233 230 231 233 234 235 239 236 229 225 199 206 299 186 171 178 178 189 190 182 187 195 204 186 221 175 167 195 233 172 180 159 165 154
117 81 126 157 158 189 171 200 225 248 226 231 210 230 216 200 194 218 238 237 233 220 217 221 217 219 213 218 229 217 198 195 220 195 187 191 187 193 186 185 181 174 165 172 188 187 163 166 160 151 155 155 156 168
61 72 115 287 211 209 198 196 203 223 232 214 225 238 172 172 210 232 236 221 224 205 202 202 204 208 213 216 214 210 194 199 216 190 197 196 190 181 176 166 162 163 166 165 165 160 158 145 149 151 149 143 145 144
180 177 209 199 188 212 201 230 197 218 233 220 217 300 5 290 274 243 97 331 166 227 219 199 204 207 217 220 207 196 187 194 207 198 196 189 179 177 169 168 166 168 174 174 166 160 154 153 155 151 154 163 161 142
224 190 187 225 247 227 242 237 211 206 255 250 92 55 290 255 245 31 14 21 357 320 220 215 213 196 204 217 175 171 176 189 189 186 181 181 175 175 173 176 181 176 170 170 162 159 157 158 159 156 157 159 167 159
340 289 310 171 201 255 291 298 255 251 307 2 164 175 238 341 338 323 327 340 36 64 96 83 140 148 173 188 168 161 171 179 185 184 185 171 170 166 166 159 152 159 161 164 160 156 158 161 163 165 167 168 174 171
245 201 230 202 231 252 264 280 322 31 357 347 345 77 59 343 357 42 80 113 131 119 98 74 24 180 172 153 154 155 161 175 175 185 169 163 164 165 166 162 160 155 162 165 162 164 168 169 173 173 173 174 181 184
122 190 216 259 269 305 325 5 302 298 14 115 105 106 87 62 70 65 65 63 56 55 54 77 198 150 156 159 145 154 167 167 178 191 181 181 177 176 173 172 170 171 172 173 170 176 185 182 188 186 188 193 195 197
67 180 261 239 274 27 341 42 69 63 87 77 91 92 86 64 55 47 57 78 62 45 71 99 111 132 138 134 145 156 144 150 152 149 137 126 142 164 174 179 181 184 186 188 187 189 187 187 196 198 202 203 207 206
192 174 243 275 299 60 32 40 75 64 87 80 75 105 112 84 51 42 50 56 68 66 54 66 75 79 89 98 111 128 138 137 155 169 172 181 170 161 157 162 188 200 203 206 209 211 213 211 212 216 218 221 220 221
152 199 223 272 237 103 49 355 107 119 120 99 52 71 76 72 76 52 71 68 54 68 74 72 70 65 62 67 74 73 74 82 85 97 108 123 156 194 203 200 196 186 193 214 222 227 229 230 232 233 234 232 229 231
Wind_Speed_850mb
84 81 84 80 74 67 65 62 57 55 54 50 45 35 29 24 19 6 9 16 12 21 40 29 21 23 17 15 10 23 14 9 10 11 6 7 8 8 6 11 20 8 12 10 10 8 10 60 29 17 20 33 31 31
83 84 81 82 84 78 77 68 62 60 58 55 50 37 32 27 20 13 12 19 15 24 26 30 39 37 38 30 24 9 15 6 6 5 8 7 7 9 16 8 19 7 3 6 5 7 23 36 39 42 34 28 32 34
78 81 83 82 76 88 86 80 69 67 64 61 53 40 35 30 22 17 15 20 22 30 50 31 21 23 29 32 27 12 9 5 5 2 5 5 10 8 7 10 10 9 17 5 11 5 25 24 44 37 32 30 34 39
71 76 76 80 76 78 88 77 80 74 72 65 55 44 37 31 25 21 18 11 17 11 11 2 12 12 16 23 30 35 18 2 3 8 6 6 6 7 7 13 4 8 17 21 5 10 31 20 40 34 29 31 36 38
67 70 77 71 82 75 79 83 89 88 79 69 58 44 37 34 26 21 21 21 25 17 11 26 36 30 30 37 26 25 26 23 16 3 5 6 9 6 9 10 8 4 6 11 6 15 9 12 29 29 27 30 30 29
61 64 65 76 69 76 77 69 78 79 80 70 56 45 39 34 24 11 17 23 30 28 8 7 10 15 19 19 23 29 24 17 13 8 8 11 11 8 7 4 5 4 11 20 1 8 16 10 22 19 22 24 25 28
62 58 59 63 72 66 69 67 63 73 71 65 52 43 36 33 29 23 6 16 27 26 7 12 9 15 25 23 22 21 23 14 14 9 12 10 11 16 7 8 13 11 12 18 16 6 8 25 14 16 15 15 18 22
56 52 50 50 54 55 53 46 53 68 65 63 49 38 29 25 26 35 35 28 26 12 8 7 8 11 25 25 20 20 16 15 16 11 10 10 12 12 9 18 10 13 13 9 12 14 12 7 13 16 16 16 21 27
50 48 42 37 40 37 36 46 49 51 57 56 44 33 27 16 13 19 25 19 24 15 9 10 8 6 17 23 12 22 20 9 19 11 11 8 7 11 17 22 21 17 9 14 11 6 6 9 10 10 11 13 22 25
46 43 37 38 34 35 45 52 56 59 69 52 51 19 11 16 24 22 24 23 26 18 16 14 31 12 15 6 15 10 13 5 7 14 10 7 10 37 18 21 24 19 13 14 10 9 1 5 8 11 12 15 16 17
41 39 35 37 28 40 50 57 60 73 74 54 18 12 27 21 26 15 11 16 23 12 17 22 37 20 18 9 3 5 4 3 6 6 6 5 8 16 31 28 23 21 16 9 11 12 11 10 8 9 12 15 16 18
39 35 33 36 40 43 56 55 65 91 68 36 27 28 34 15 15 10 10 14 16 12 30 24 20 33 10 10 12 11 5 4 10 18 4 5 11 6 26 31 26 24 20 18 15 14 13 13 12 12 12 13 16 17
39 34 37 38 44 44 54 52 82 62 56 40 12 14 16 15 12 15 21 13 12 16 28 28 18 24 14 15 10 8 7 10 6 7 6 3 14 13 7 20 28 23 21 20 17 15 15 14 13 13 13 14 13 15
38 31 36 35 43 49 48 70 67 74 57 14 15 9 10 13 16 16 17 17 14 24 39 38 21 11 12 14 7 8 11 8 7 9 5 6 3 10 14 26 28 27 23 20 17 14 12 11 12 12 12 12 11 14
36 28 32 32 29 46 59 57 82 71 15 13 16 13 21 32 21 25 27 15 22 20 29 30 15 18 13 10 10 9 8 12 9 4 7 11 2 16 13 28 30 28 24 21 17 14 13 10 7 8 10 11 12 12
32 30 36 35 40 51 55 60 76 30 12 7 11 16 22 26 21 17 16 21 26 32 31 19 7 10 16 9 15 15 7 7 3 5 6 6 9 21 35 29 30 27 24 21 18 15 11 8 5 5 7 9 11 11
27 29 26 35 44 43 62 72 33 11 18 12 13 31 33 12 12 24 26 29 28 29 17 9 10 13 8 8 10 4 8 4 3 7 12 20 19 28 48 41 34 29 25 22 18 15 11 9 6 4 5 4 7 8
27 23 19 38 46 68 66 27 12 14 13 15 14 16 19 21 13 10 14 23 26 29 21 6 10 14 9 11 13 3 7 4 11 14 22 17 22 30 47 39 35 31 26 22 18 14 10 4 4 4 4 3 7 7
27 24 29 53 76 41 10 15 8 11 14 13 27 28 21 23 21 19 15 19 22 21 16 9 11 13 13 17 12 5 13 8 18 19 5 14 49 41 34 34 32 27 23 20 18 12 8 6 6 6 3 1 4 9
24 27 47 58 51 10 9 8 9 6 8 22 30 31 36 31 25 25 26 24 28 32 20 12 15 15 11 3 5 12 13 13 16 11 28 26 27 30 32 32 27 22 19 16 15 12 10 8 10 10 8 7 5 8
47 67 66 55 29 9 7 11 11 9 12 12 16 24 22 22 31 31 32 35 34 37 21 36 36 35 26 10 7 4 11 3 12 22 31 31 30 35 30 23 22 18 20 19 17 17 16 10 6 8 7 2 2 5
54 59 53 30 9 4 3 8 7 9 7 13 16 25 22 27 30 33 32 35 40 37 40 42 37 37 37 34 28 18 10 10 11 15 26 30 40 30 27 24 20 18 17 16 14 13 10 8 3 5 5 1 7 5
50 33 13 7 4 5 4 10 9 10 7 8 13 11 12 14 20 21 16 30 40 38 37 40 40 35 36 27 23 21 16 13 6 18 29 32 32 30 29 23 23 21 19 11 5 5 9 11 7 8 6 8 8 4
27 7 5 7 7 5 7 8 9 8 11 14 9 12 12 12 11 12 15 32 33 31 38 37 32 35 33 31 31 31 30 21 23 27 38 34 34 31 28 23 20 14 8 9 8 9 8 12 12 12 10 9 8 6
6 4 7 3 5 7 9 9 10 9 9 12 10 10 6 12 8 9 12 9 21 30 29 33 36 39 41 39 36 31 28 25 22 23 37 38 40 33 29 23 18 13 12 14 14 15 15 15 15 13 12 11 10 9
3 8 7 14 12 9 8 6 13 12 5 7 13 2 5 3 5 5 4 4 3 9 18 29 35 36 35 36 32 33 37 31 25 33 33 42 36 33 29 27 23 16 15 15 18 20 21 19 17 17 16 17 20 14
3 5 7 5 4 6 8 11 7 5 5 6 2 3 2 3 7 6 14 15 8 3 4 10 12 23 30 28 25 28 31 33 31 37 32 28 29 28 27 25 24 21 22 20 21 22 24 24 23 21 19 17 16 12
6 5 1 13 8 6 6 6 3 4 5 10 3 8 2 4 4 11 8 11 3 4 8 10 7 10 13 18 18 23 38 30 32 37 30 30 29 27 24 22 26 24 26 25 25 24 24 23 23 22 21 18 16 15
5 2 3 5 5 4 4 4 5 8 14 9 5 3 4 5 23 11 9 16 22 17 12 7 3 6 17 14 20 25 30 31 34 43 44 35 33 29 27 23 27 27 27 29 30 25 25 22 22 22 22 18 16 16
2 5 2 2 3 3 5 8 12 12 8 7 10 20 16 27 31 39 44 42 35 21 13 3 3 12 29 31 33 38 33 26 28 25 30 36 35 31 29 25 28 27 27 28 28 29 30 28 27 24 22 19 18 18
1 5 3 6 5 3 1 4 12 24 29 31 27 27 20 12 27 41 35 24 33 45 30 28 32 29 38 38 36 38 36 31 28 25 28 28 27 30 27 25 26 26 25 27 28 27 29 29 25 25 25 24 23 22
7 7 4 4 3 2 8 6 9 13 13 15 15 13 18 14 13 24 40 36 31 35 40 45 51 54 50 49 45 37 32 30 26 24 27 32 31 33 28 18 17 21 26 29 28 29 29 31 29 28 27 28 27 26
6 10 8 8 5 2 5 4 10 10 4 0 7 19 21 13 9 9 18 32 28 28 31 31 31 35 39 43 39 34 32 27 19 14 12 10 9 12 17 23 31 33 23 26 30 32 33 36 37 35 34 32 30 30
Wind_Direction_850mb
264 264 258 258 260 261 265 268 266 268 264 266 272 277 278 283 290 291 260 260 258 272 281 267 264 259 254 242 267 348 328 21 7 354 349 344 302 329 290 349 356 8 324 343 321 315 346 2 340 357 306 327 359 12
267 264 263 260 252 254 255 259 261 263 257 257 261 264 265 265 266 259 257 265 256 261 265 281 271 251 241 251 282 280 304 40 40 315 3 319 302 313 321 309 24 17 46 289 296 312 340 338 327 347 351 11 22 31
268 265 263 259 261 251 251 250 252 253 253 249 251 254 256 254 256 249 230 244 276 281 295 255 261 253 230 231 224 256 85 64 115 159 307 269 270 291 306 353 332 331 352 254 310 39 338 352 353 355 14 30 36 40
273 264 262 258 261 258 255 249 248 249 250 239 240 240 246 245 246 243 235 255 250 287 282 257 249 241 232 219 214 223 237 257 283 177 253 265 262 343 303 317 280 258 320 316 288 325 322 7 358 3 23 41 43 47
279 273 259 262 258 262 257 250 250 247 245 232 230 230 235 234 234 237 239 241 244 235 293 302 291 260 242 224 211 220 232 248 261 206 233 241 254 281 234 267 249 19 298 354 309 14 309 315 355 16 35 36 41 38
283 272 271 256 261 258 255 257 248 245 236 222 216 217 223 223 215 203 260 233 224 213 272 285 337 237 214 202 210 216 228 227 211 194 238 248 245 238 276 280 180 91 62 15 47 66 29 348 16 28 44 44 43 40
282 281 268 265 255 261 253 248 251 237 223 209 204 208 210 212 192 196 299 147 184 187 239 276 251 189 210 197 206 212 197 195 206 229 234 244 223 198 276 270 155 129 110 62 52 168 26 40 32 33 45 45 48 46
287 283 272 267 255 253 249 240 242 222 209 197 192 189 194 209 210 224 234 225 194 201 227 266 264 238 189 202 182 187 188 194 214 229 237 230 171 214 254 221 180 154 145 139 86 80 74 45 36 36 31 29 37 40
293 287 273 266 246 238 231 225 216 207 194 184 181 173 167 181 206 227 209 213 193 225 257 225 244 161 180 230 148 179 180 188 186 216 232 217 191 223 254 190 181 176 210 146 153 115 51 26 19 19 10 20 19 20
285 289 274 255 248 237 220 211 198 183 187 179 164 132 157 187 189 183 169 163 196 215 230 246 235 246 197 188 194 210 187 241 209 211 191 225 250 248 270 201 169 176 156 157 175 191 198 15 20 29 26 22 18 14
277 282 275 247 232 220 209 194 180 182 177 167 152 135 134 153 163 204 190 193 191 212 217 230 226 226 210 203 283 296 245 215 251 165 240 224 251 222 203 182 165 160 157 139 115 103 86 79 73 54 36 33 29 23
270 271 273 249 226 211 196 197 174 182 179 154 138 138 129 183 204 215 197 217 192 225 172 204 187 202 162 192 223 202 231 263 254 139 220 256 356 124 180 163 160 157 149 136 124 109 92 81 71 65 53 39 34 33
272 263 260 243 222 208 207 198 179 176 162 148 139 146 179 176 209 217 203 197 195 193 156 164 157 169 166 198 213 205 215 235 269 229 225 61 314 7 154 162 156 160 152 141 126 112 100 89 76 66 52 40 42 39
269 259 247 234 222 204 199 181 177 174 148 152 159 177 203 204 222 205 213 198 183 168 159 166 154 162 172 195 208 217 208 218 263 212 197 150 229 247 188 185 172 167 161 150 142 129 113 101 86 69 54 48 37 37
258 250 230 226 218 194 192 180 182 173 142 163 192 208 216 229 218 202 207 171 150 163 160 164 160 191 187 207 202 213 223 232 221 185 133 128 180 177 194 191 178 172 168 161 152 144 130 114 97 74 61 53 44 38
243 241 234 221 207 193 185 175 170 160 160 189 241 249 249 210 202 192 179 198 174 173 169 170 197 201 206 217 189 203 229 256 98 108 119 323 234 192 185 185 182 174 171 166 160 156 144 127 117 117 74 40 30 29
232 229 231 201 195 176 173 163 155 152 188 188 229 246 278 211 218 201 193 198 180 193 201 156 212 210 210 223 231 180 250 49 55 41 320 285 245 201 187 176 177 172 169 168 166 163 154 139 122 85 14 5 31 24
221 214 210 181 168 162 163 155 145 178 189 200 233 264 233 256 220 173 190 198 188 208 217 198 296 219 220 235 235 114 91 46 48 335 307 267 220 199 176 174 169 169 170 173 175 172 173 180 280 251 263 248 336 347
209 208 185 175 166 145 117 162 163 186 206 196 223 248 258 231 229 248 208 206 206 216 170 213 229 239 243 260 295 119 104 53 354 342 -0 157 153 166 168 167 168 169 173 180 183 194 213 230 309 320 308 205 314 301
215 169 178 167 145 109 112 122 190 285 219 205 221 238 233 235 231 218 216 211 204 211 221 214 235 238 259 36 20 53 90 43 13 111 145 153 146 156 171 171 174 177 187 187 202 214 221 253 287 286 275 252 283 242
133 149 153 150 123 83 138 153 174 221 239 237 237 221 231 224 233 226 215 213 215 221 223 228 242 252 264 272 191 156 160 99 41 166 184 191 190 181 171 175 179 189 195 202 212 219 226 245 222 237 197 242 216 171
148 141 125 106 70 85 203 177 161 161 239 240 223 216 235 221 217 214 220 220 218 223 230 236 239 240 246 247 249 252 207 164 21 180 194 188 181 178 177 181 177 196 199 213 224 200 200 180 234 204 167 180 158 154
122 110 85 81 101 160 221 178 200 202 236 209 206 228 221 234 228 197 205 231 233 230 231 233 234 235 239 236 229 225 199 206 299 186 171 178 178 189 190 182 187 195 204 186 221 175 167 195 233 172 180 159 165 154
117 81 126 157 158 189 171 200 225 248 226 231 210 230 216 200 194 218 238 237 233 220 217 221 217 219 213 218 229 217 198 195 220 195 187 191 187 193 186 185 181 174 165 172 188 187 163 166 160 151 155 155 156 168
61 72 115 287 211 209 198 196 203 223 232 214 225 238 172 172 210 232 236 221 224 205 202 202 204 208 213 216 214 210 194 199 216 190 197 196 190 181 176 166 162 163 166 165 165 160 158 145 149 151 149 143 145 144
180 177 209 199 188 212 201 230 197 218 233 220 217 300 5 290 274 243 97 331 166 227 219 199 204 207 217 220 207 196 187 194 207 198 196 189 179 177 169 168 166 168 174 174 166 160 154 153 155 151 154 163 161 142
224 190 187 225 247 227 242 237 211 206 255 250 92 55 290 255 245 31 14 21 357 320 220 215 213 196 204 217 175 171 176 189 189 186 181 181 175 175 173 176 181 176 170 170 162 159 157 158 159 156 157 159 167 159
340 289 310 171 201 255 291 298 255 251 307 2 164 175 238 341 338 323 327 340 36 64 96 83 140 148 173 188 168 161 171 179 185 184 185 171 170 166 166 159 152 159 161 164 160 156 158 161 163 165 167 168 174 171
245 201 230 202 231 252 264 280 322 31 357 347 345 77 59 343 357 42 80 113 131 119 98 74 24 180 172 153 154 155 161 175 175 185 169 163 164 165 166 162 160 155 162 165 162 164 168 169 173 173 173 174 181 184
122 190 216 259 269 305 325 5 302 298 14 115 105 106 87 62 70 65 65 63 56 55 54 77 198 150 156 159 145 154 167 167 178 191 181 181 177 176 173 172 170 171 172 173 170 176 185 182 188 186 188 193 195 197
67 180 261 239 274 27 341 42 69 63 87 77 91 92 86 64 55 47 57 78 62 45 71 99 111 132 138 134 145 156 144 150 152 149 137 126 142 164 174 179 181 184 186 188 187 189 187 187 196 198 202 203 207 206
192 174 243 275 299 60 32 40 75 64 87 80 75 105 112 84 51 42 50 56 68 66 54 66 75 79 89 98 111 128 138 137 155 169 172 181 170 161 157 162 188 200 203 206 209 211 213 211 212 216 218 221 220 221
152 199 223 272 237 103 49 355 107 119 120 99 52 71 76 72 76 52 71 68 54 68 74 72 70 65 62 67 74 73 74 82 85 97 108 123 156 194 203 200 196 186 193 214 222 227 229 230 232 233 234 232 229 231